• In Hungary
  • List of Countries
  • For 7 days
  • Water Temperature
  • Satellite Maps
  • Weather Map
  • News
  • Weather Widgets
  • user-avatar
    Login

    Hourly Weather Prizren

    Today, 23 May, Wednesday

    Time Temperature Precipitation Wind Pressure Humidity
    00:00 +14°C° 0.1 mm 1 mps 701 mmHg 84%
    01:00 +14°C° 0 mm 1 mps 701 mmHg 83%
    02:00 +14°C° 0.1 mm 1 mps 701 mmHg 84%
    03:00 +14°C° 0.1 mm 1 mps 701 mmHg 84%
    04:00 +14°C° 0.1 mm 1 mps 701 mmHg 85%
    05:00 +15°C° 0.2 mm 1 mps 701 mmHg 82%
    06:00 +18°C° 0.2 mm 1 mps 701 mmHg 79%
    07:00 +19°C° 0.2 mm 1 mps 702 mmHg 76%
    08:00 +20°C° 0.5 mm 2 mps 702 mmHg 70%
    09:00 +21°C° 0.5 mm 2 mps 702 mmHg 65%
    10:00 +23°C° 0.5 mm 2 mps 702 mmHg 60%
    11:00 +24°C° 0.6 mm 2 mps 702 mmHg 58%
    12:00 +24°C° 0.6 mm 2 mps 702 mmHg 56%
    13:00 +25°C° 0.6 mm 2 mps 701 mmHg 53%
    14:00 +24°C° 0.8 mm 2 mps 701 mmHg 58%
    15:00 +24°C° 0.8 mm 2 mps 701 mmHg 62%
    16:00 +23°C° 0.8 mm 1 mps 700 mmHg 66%
    17:00 +21°C° 0.4 mm 1 mps 700 mmHg 69%
    18:00 +20°C° 0.4 mm 1 mps 700 mmHg 73%
    19:00 +19°C° 0.4 mm 1 mps 700 mmHg 76%
    20:00 +18°C° 0.4 mm 1 mps 700 mmHg 78%
    21:00 +16°C° 0.4 mm 1 mps 700 mmHg 79%
    22:00 +16°C° 0.4 mm 1 mps 699 mmHg 81%
    23:00 +15°C° 0.2 mm 1 mps 699 mmHg 81%

    Tomorrow, 24 May, Thursday

    Time Temperature Precipitation Wind Pressure Humidity
    00:00 +15°C° 0.2 mm 1 mps 699 mmHg 82%
    01:00 +15°C° 0.2 mm 1 mps 699 mmHg 83%
    02:00 +14°C° 0.1 mm 1 mps 699 mmHg 83%
    03:00 +14°C° 0.1 mm 1 mps 699 mmHg 84%
    04:00 +14°C° 0.1 mm 1 mps 699 mmHg 84%
    05:00 +15°C° 0 mm 1 mps 699 mmHg 80%
    06:00 +18°C° 0 mm 1 mps 700 mmHg 77%
    07:00 +19°C° 0 mm 1 mps 700 mmHg 74%
    08:00 +20°C° 0.3 mm 1 mps 700 mmHg 69%
    09:00 +22°C° 0.3 mm 1 mps 700 mmHg 64%
    10:00 +23°C° 0.3 mm 1 mps 700 mmHg 60%
    11:00 +23°C° 0.7 mm 2 mps 700 mmHg 60%
    12:00 +24°C° 0.7 mm 2 mps 700 mmHg 59%
    13:00 +24°C° 0.7 mm 2 mps 700 mmHg 59%
    14:00 +24°C° 1.1 mm 2 mps 700 mmHg 61%
    15:00 +23°C° 1.1 mm 2 mps 699 mmHg 64%
    16:00 +23°C° 1.1 mm 2 mps 699 mmHg 66%
    17:00 +20°C° 0.6 mm 2 mps 699 mmHg 72%
    18:00 +19°C° 0.6 mm 2 mps 699 mmHg 78%
    19:00 +17°C° 0.6 mm 2 mps 699 mmHg 84%
    20:00 +16°C° 0.1 mm 2 mps 699 mmHg 86%
    21:00 +16°C° 0.1 mm 1 mps 699 mmHg 87%
    22:00 +15°C° 0.1 mm 1 mps 699 mmHg 89%
    23:00 +14°C° 0 mm 1 mps 699 mmHg 90%

    Day after tomorrow, 25 May, Friday

    Time Temperature Precipitation Wind Pressure Humidity
    00:00 +14°C° 0 mm 1 mps 699 mmHg 91%
    01:00 +14°C° 0 mm 1 mps 699 mmHg 92%
    02:00 +14°C° 0 mm 1 mps 699 mmHg 92%
    03:00 +13°C° 0 mm 1 mps 699 mmHg 92%
    04:00 +13°C° 0 mm 1 mps 699 mmHg 92%
    05:00 +15°C° 0 mm 1 mps 699 mmHg 88%
    06:00 +16°C° 0 mm 2 mps 700 mmHg 83%
    07:00 +18°C° 0 mm 2 mps 700 mmHg 78%
    08:00 +19°C° 0 mm 2 mps 700 mmHg 73%
    09:00 +20°C° 0 mm 2 mps 700 mmHg 68%
    10:00 +21°C° 0 mm 2 mps 700 mmHg 62%
    11:00 +23°C° 0 mm 2 mps 700 mmHg 60%
    12:00 +24°C° 0 mm 3 mps 700 mmHg 58%
    13:00 +24°C° 0 mm 3 mps 700 mmHg 56%
    14:00 +24°C° 0.2 mm 3 mps 700 mmHg 58%
    15:00 +24°C° 0.2 mm 3 mps 700 mmHg 59%
    16:00 +24°C° 0.2 mm 3 mps 700 mmHg 60%
    17:00 +21°C° 0.2 mm 2 mps 700 mmHg 67%
    18:00 +19°C° 0.2 mm 2 mps 700 mmHg 74%
    19:00 +17°C° 0.2 mm 2 mps 700 mmHg 80%
    20:00 +17°C° 0 mm 2 mps 700 mmHg 82%
    21:00 +16°C° 0 mm 2 mps 700 mmHg 84%
    22:00 +15°C° 0 mm 1 mps 701 mmHg 87%
    23:00 +15°C° 0 mm 1 mps 701 mmHg 88%

    26 May, Saturday

    Time Temperature Precipitation Wind Pressure Humidity
    00:00 +14°C° 0 mm 1 mps 701 mmHg 89%
    01:00 +14°C° 0 mm 1 mps 701 mmHg 90%
    02:00 +14°C° 0 mm 1 mps 701 mmHg 91%
    03:00 +13°C° 0 mm 2 mps 701 mmHg 91%
    04:00 +13°C° 0 mm 2 mps 701 mmHg 91%
    05:00 +15°C° 0 mm 2 mps 701 mmHg 86%
    06:00 +16°C° 0 mm 2 mps 701 mmHg 81%
    07:00 +18°C° 0 mm 2 mps 702 mmHg 76%
    08:00 +19°C° 0 mm 2 mps 702 mmHg 70%
    09:00 +21°C° 0 mm 3 mps 702 mmHg 65%
    10:00 +22°C° 0 mm 3 mps 703 mmHg 59%
    11:00 +24°C° 0 mm 3 mps 702 mmHg 57%
    12:00 +24°C° 0 mm 3 mps 702 mmHg 56%
    13:00 +25°C° 0 mm 3 mps 702 mmHg 54%
    14:00 +25°C° 0.2 mm 3 mps 702 mmHg 57%
    15:00 +25°C° 0.2 mm 3 mps 702 mmHg 59%
    16:00 +25°C° 0.2 mm 3 mps 702 mmHg 62%
    17:00 +22°C° 0.2 mm 3 mps 702 mmHg 69%
    18:00 +20°C° 0.2 mm 2 mps 702 mmHg 76%
    19:00 +18°C° 0.2 mm 2 mps 702 mmHg 83%
    20:00 +17°C° 0 mm 2 mps 702 mmHg 85%
    21:00 +17°C° 0 mm 2 mps 702 mmHg 87%
    22:00 +16°C° 0 mm 2 mps 702 mmHg 89%
    23:00 +15°C° 0 mm 2 mps 702 mmHg 90%

    27 May, Sunday

    Time Temperature Precipitation Wind Pressure Humidity
    00:00 +15°C° 0 mm 1 mps 702 mmHg 91%
    01:00 +15°C° 0 mm 1 mps 702 mmHg 92%
    02:00 +15°C° 0 mm 1 mps 702 mmHg 92%
    03:00 +14°C° 0 mm 1 mps 702 mmHg 93%
    04:00 +14°C° 0 mm 1 mps 702 mmHg 93%
    05:00 +16°C° 0 mm 2 mps 702 mmHg 89%
    06:00 +17°C° 0 mm 2 mps 702 mmHg 84%
    07:00 +18°C° 0 mm 2 mps 703 mmHg 80%
    08:00 +20°C° 0 mm 2 mps 703 mmHg 75%
    09:00 +21°C° 0 mm 2 mps 703 mmHg 70%
    10:00 +23°C° 0 mm 2 mps 703 mmHg 66%
    11:00 +23°C° 0 mm 2 mps 703 mmHg 64%
    12:00 +24°C° 0 mm 2 mps 702 mmHg 62%
    13:00 +25°C° 0 mm 2 mps 702 mmHg 60%
    14:00 +25°C° 0.1 mm 2 mps 702 mmHg 60%
    15:00 +25°C° 0.1 mm 2 mps 702 mmHg 60%
    16:00 +25°C° 0.1 mm 2 mps 702 mmHg 60%
    17:00 +23°C° 0.2 mm 2 mps 702 mmHg 67%
    18:00 +20°C° 0.2 mm 2 mps 702 mmHg 74%
    19:00 +19°C° 0.2 mm 1 mps 701 mmHg 80%
    20:00 +19°C° 0 mm 1 mps 702 mmHg 82%
    21:00 +18°C° 0 mm 1 mps 702 mmHg 84%
    22:00 +16°C° 0 mm 1 mps 702 mmHg 86%
    23:00 +16°C° 0 mm 1 mps 702 mmHg 87%

    28 May, Monday

    Time Temperature Precipitation Wind Pressure Humidity
    00:00 +15°C° 0 mm 1 mps 702 mmHg 88%
    01:00 +15°C° 0 mm 1 mps 701 mmHg 89%
    02:00 +14°C° 0 mm 1 mps 701 mmHg 90%
    03:00 +14°C° 0 mm 1 mps 701 mmHg 90%
    04:00 +14°C° 0 mm 1 mps 701 mmHg 90%
    05:00 +16°C° 0 mm 1 mps 702 mmHg 86%
    06:00 +18°C° 0 mm 1 mps 702 mmHg 81%
    07:00 +20°C° 0 mm 1 mps 702 mmHg 76%
    08:00 +20°C° 0 mm 2 mps 703 mmHg 71%
    09:00 +23°C° 0 mm 2 mps 703 mmHg 65%
    10:00 +24°C° 0 mm 2 mps 703 mmHg 59%
    11:00 +25°C° 0 mm 3 mps 703 mmHg 56%
    12:00 +25°C° 0 mm 3 mps 703 mmHg 53%
    13:00 +26°C° 0 mm 3 mps 703 mmHg 50%
    14:00 +26°C° 0 mm 3 mps 702 mmHg 51%
    15:00 +26°C° 0 mm 3 mps 702 mmHg 52%
    16:00 +25°C° 0 mm 3 mps 702 mmHg 52%
    17:00 +23°C° 0 mm 2 mps 702 mmHg 59%
    18:00 +20°C° 0 mm 2 mps 701 mmHg 66%
    19:00 +18°C° 0 mm 2 mps 701 mmHg 73%
    20:00 +18°C° 0 mm 1 mps 701 mmHg 76%
    21:00 +16°C° 0 mm 1 mps 702 mmHg 78%
    22:00 +15°C° 0 mm 1 mps 702 mmHg 80%
    23:00 +14°C° 0 mm 1 mps 701 mmHg 82%
    Show more